Flag for Switzerland Weather past 2 weeks in Martigny, Valais, Switzerland

Now
67 °F

Mild.


Feels Like: 67 °F
Forecast: 60 / 83 °F
Wind: 6 mph from West

Location: Sion

Current Time: Jul 30, 2014 at 2:11:13 PM

Latest Report: Jul 30, 2014 at 1:00 PM


Visibility: N/A

Pressure: 29.85 "Hg

Humidity: 72%

Dew point: 58 °F

Location of MartignyLocation

Historic Weather in Martigny — Graph

°F

Martigny temperature yesterday

Maximum temperature yesterday: 69 °F (at 6:00 PM)
Minimum temperature yesterday: 55 °F (at 6:00 AM)
Average temperature yesterday: 62 °F

Past Weeks' High & Low Weather Summary

 TemperatureHumidityPressure
High92 °F (Jul 18, 4:00 PM)98% (Jul 21, 6:00 AM)30.20 "Hg (Jul 21, 6:00 AM)
Low55 °F (Jul 29, 6:00 AM)26% (Jul 18, 4:00 PM)29.72 "Hg (Jul 28, 4:00 PM)
Average69 °F71%29.94 "Hg
* Reported Jul 15 12:00 Noon — Jul 30 12:00 Noon, Martigny, Weather by CustomWeather, © 2014

Note: Actual official high and low records may vary slightly from our data, if they occured in-between our weather recording intervals... More about our weather records

Advertising

Martigny weather history for previous 24 hours

 ConditionsComfort  
Time TempWeatherWind HumidityBarometerVisibility
12:00 PM
Jul 30
65 °FMild.3 mph79%29.85 "HgN/A
11:00 AM62 °FOvercast.1 mph83%29.86 "Hg9 mi
10:00 AM62 °FCool.5 mph83%29.86 "HgN/A
9:00 AM61 °FCool.1 mph89%29.86 "HgN/A
8:00 AM60 °FOvercast.2 mph88%29.85 "Hg9 mi
7:00 AM60 °FCool.1 mph91%29.86 "HgN/A
6:00 AM60 °FCool.1 mph93%29.85 "HgN/A
5:00 AM60 °FOvercast.2 mph93%29.84 "Hg12 mi
4:00 AM60 °FCool.2 mph91%29.86 "HgN/A
3:00 AM60 °FCool.1 mph90%29.86 "HgN/A
2:00 AM60 °FOvercast.No wind89%29.87 "Hg12 mi
1:00 AM60 °FCool.3 mph90%29.87 "HgN/A
12:00 AM61 °FCool.No wind85%29.86 "HgN/A
11:00 PM
Jul 29
62 °FOvercast.1 mph82%29.86 "Hg12 mi
10:00 PM61 °FCool.1 mph84%29.85 "HgN/A
9:00 PM63 °FMild.7 mph77%29.83 "HgN/A
8:00 PM66 °FPartly sunny.9 mph66%29.79 "Hg12 mi
7:00 PM68 °FMild.5 mph60%29.79 "HgN/A
6:00 PM69 °FMild.6 mph54%29.76 "HgN/A
5:00 PM67 °FOvercast.2 mph59%29.80 "Hg9 mi
4:00 PM65 °FMild.5 mph60%29.80 "HgN/A
3:00 PM65 °FMild.2 mph65%29.81 "HgN/A
2:00 PM65 °FOvercast.2 mph55%29.80 "Hg9 mi
Weather by CustomWeather, © 2014

See weather overviewHow to use our weather pages